Regional Weather Roundup
Issued by NWS Upton, NY

Current Version | Previous Version | Text Only | Print | Product List | Glossary On
Versions: 1 2 3 4 5 6 7 8 9 10 11 12 13 14 15 16 17 18 19 20 21 22 23 24 25 26 27 28 29 30 31 32 33 34 35 36 37 38 39 40 41 42 43 44 45 46 47 48 49 50
000
ASUS41 KOKX 210709
RWROKX

Regional Weather Roundup
National Weather Service New York NY
200 AM EST SUN JAN 21 2018

Note: "FAIR" indicates few or no clouds below 12,000 feet with no
significant weather and/or obstructions to visibility.

NYZ071-072-176-178-NJZ106-104-210800-
New York City Metro Area

CITY           SKY/WX    TMP DP  RH WIND       PRES   REMARKS
Central Park   FAIR      44  28  53 MISG      30.08R
Bronx Bot Gard   N/A     43  28  56 W6        30.08R
Bronx Lehman C NOT AVBL
LaGuardia Arpt FAIR      43  28  55 NW3       30.06R
Queens College   N/A     43  30  61 SW7         N/A
Kennedy Intl   FAIR      32  28  85 SW7       30.08R WCI  26
Breezy Point     N/A     37 N/A N/A W5          N/A  WCI  34
Brooklyn Coll  NOT AVBL
Staten Island    N/A     41  30  65 W5          N/A
Newark/Liberty FAIR      39  28  64 W7        30.07R WCI  34
Teterboro      FAIR      35  27  72 CALM      30.06R
$$

NYZ177-179-078>081-210800-
Long Island New York

CITY           SKY/WX    TMP DP  RH WIND       PRES   REMARKS
Jones Beach      N/A     39 N/A N/A W8          N/A  WCI  34
Wantagh          N/A     37  30  75 W5          N/A  WCI  34
Matinecock Pt    N/A     43 N/A N/A SW8         N/A
Farmingdale    FAIR      37  28  70 NW5       30.06R WCI  33
MacArthur/ISP  FAIR      38  29  70 W7        30.04S WCI  33
Shirley        FAIR      34  28  79 W6        30.05R WCI  29
Mt Sinai Harb    N/A    N/A N/A N/A SW5G10      N/A
Westhampton    FAIR      24  18  77 CALM      30.06R
East Hampton   FAIR      38  27  63 CALM      30.03R
Southold         N/A     41  30  65 NW8         N/A
Montauk        NOT AVBL
$$

NYZ052-065-067-210800-
Hudson Valley

CITY           SKY/WX    TMP DP  RH WIND       PRES   REMARKS
White Plains   FAIR      29  26  89 W6        30.04R WCI  23
Larchmont Harb   N/A     36 N/A N/A CALM        N/A
Croton On Huds   N/A     34 N/A N/A E1          N/A
Somers           N/A     39  28  65 W3          N/A
Brewster       NOT AVBL
Newburgh       CLEAR     30  27  86 W6        30.05R WCI  24
Montgomery     FAIR      25  21  85 S3        30.03R
Otisville        N/A     34  28  80 S5          N/A  WCI  30
Warwick          N/A     34  28  80 SW2         N/A
Suffern          N/A     37  28  70 S1          N/A
Poughkeepsie   FAIR      24  21  88 CALM      30.05R
Albany         MOCLDY    35  25  66 W6        30.06R WCI  30
$$

NJZ001-105-106-008-010-013-015-019>022-104-210800-
New Jersey

CITY           SKY/WX    TMP DP  RH WIND       PRES   REMARKS
Newark/Liberty FAIR      39  28  64 W7        30.07R WCI  34
Teterboro      FAIR      35  27  72 CALM      30.06R
Caldwell       FAIR      31  27  85 CALM      30.08R
Somerville     FAIR      28  26  92 CALM      30.07R
Linden         FAIR      39  28  62 CALM      30.08R
Perth Amboy      N/A     37 N/A N/A NW7         N/A  WCI  32
Sussex         FAIR      22  20  92 CALM      30.05R
Andover          N/A     24  22  91 CALM      30.06R
Trenton        FAIR      38  28  67 SW5       30.08R WCI  34
Millville      FAIR      26  24  92 W5        30.10R WCI  20
Atlantic City  FAIR      30  25  81 CALM      30.10R
Wrightstown    FAIR      40  29  64 NW5       30.06R
Toms River     FAIR      34  28  79 W5        30.09  WCI  30
Belmar         FAIR      40  28  62 W7        30.09R
$$

PAZ047>061-062-071-210800-
Eastern Pennsylvania

CITY           SKY/WX    TMP DP  RH WIND       PRES   REMARKS
Philadelphia   FAIR      33  29  85 CALM      30.11R
Allentown      FAIR      32  25  75 SW6       30.08R WCI  26
Scranton       FAIR      36  27  69 SW5       30.07R WCI  32
$$

CTZ002-004>006-009-010-012-RIZ004-006-007-MAZ004-011-015-210800-
Southern New England

 In CT

CITY           SKY/WX    TMP DP  RH WIND       PRES   REMARKS
Bradley Intl   FAIR      28  24  85 CALM      30.03R
Hartford       FAIR      28  26  92 CALM      30.04R
Danbury        FAIR      25  23  92 CALM      30.05R
Wtrbury/Oxford FAIR      34  25  69 CALM      30.03R
Norwalk Harbor   N/A     34 N/A N/A W5          N/A  WCI  30
Bridgeport     FAIR      30  25  81 CALM      30.05R
Meriden        FAIR      25  23  92 CALM      30.05R
New Haven      FAIR      26  22  84 CALM      30.04R
Chester        FAIR      37  27  65 VRB5      30.03R WCI  34
Groton         FAIR      35  26  69 W5        30.03R WCI  31
Willimantic    FAIR      33  26  75 SW5       30.02R WCI  29

 In RI

CITY           SKY/WX    TMP DP  RH WIND       PRES   REMARKS
Providence     FAIR      31  27  85 S6        30.00R WCI  25
Block Island   FAIR      39  31  72 W12       30.03R WCI  32
Westerly       FAIR      37  29  72 W3        30.03R

In MA

CITY           SKY/WX    TMP DP  RH WIND       PRES   REMARKS
Boston         MOCLDY    40  28  62 W8        29.98R WCI  34
Worcester      FAIR      36  25  64 W15       29.94R WCI  27
Westfield      FAIR      36  27  69 SW7       30.01R WCI  30
Provincetown   FAIR      36  31  82 MISG        N/A
Nantucket      FAIR      37  31  78 W9        30.00R WCI  30
$$

ANZ330-335-338-340-345-350-353-355-210800-
Coastal Marine Observations


STATION/POSITION TIME  SKY/WX   TEMP    WIND        PRES    VSBY  WAVE
                                AIR SEA DIR/SP/G                  HT/PER
                 (UTC)          (F)     (DEG/KT/KT) (MB)    (MI)  (FT/S)
NY Harb Entrance 0550            40 39  230/  8/ 10 1017.6          3/ 7
20 S Fire Island 0650            42 41  280/ 12/ 12 1017.7          3/ 7
15 E Barnegat Li 0630               41                N/A           4/ 6
Hudson Canyon    0650            49 49  270/ 12/ 14 1017.9          5/ 7
Kings Point      0648            41 33  250/  3/  3 1018.8
Execution Rocks  NOT AVBL
Western LI Sound NOT AVBL
Central LI Sound 0615            37     290/  6/  8   N/A           1
Robbins Reef     0648            41     270/  5/  7 1018.6
$$


>>>>>>>>>>>>>>>>>>>>>>>>>>>> KEY <<<<<<<<<<<<<<<<<<<<<<<<<<<
>                                                          <
>     SKY/WX - Sky Condition/Present Weather               <
>     TMP    - Temperature in Fahrenheit                   <
>     DP     - Dew Point in Fahrenheit                     <
>     RH     - Relative Humidity in Percent                <
>     WIND   - Direction (from) and Speed in MPH           <
>     PRES   - Mean Sea Level Pressure (inches of Hg)      <
>     WCI    - Wind Chill Index                            <
>     VSB    - Visibility in Miles                         <
>     HX     - Heat Index                                  <
>     TC     - Temperature in Celsius                      <
>     VRB    - Varibale Wind Direction                     <
>                                                          <
>>>>>>>>>>>>>>>>>>>>>>>>>>>> KEY <<<<<<<<<<<<<<<<<<<<<<<<<<<



USA.gov is the U.S. government's official web portal to all federal, state and local government web resources and services.